This is the latest recevied weather packets stored in our database for station/object OE6JUE. If no packets are shown the sender has not sent any weather packets the latest 1 day(s).
| Time | Temp. | Humidity | Pressure | Rain* | Wind** | Luminosity | Snow |
|---|---|---|---|---|---|---|---|
| 1777977132 | 25.56° C | 25% | 1011.6 hPa | 0 mm | 2.24 m/s, 180° | - | - |
| 1777976832 | 25.56° C | 26% | 1011.4 hPa | 0 mm | 2.24 m/s, 225° | - | - |
| 1777976532 | 25.56° C | 26% | 1011.7 hPa | 0 mm | 1.79 m/s, 180° | - | - |
| 1777976233 | 25.56° C | 26% | 1011.6 hPa | 0 mm | 2.24 m/s, 180° | - | - |
| 1777975932 | 25.56° C | 27% | 1011.6 hPa | 0 mm | 1.79 m/s, 180° | - | - |
| 1777975633 | 25° C | 27% | 1011.6 hPa | 0 mm | 1.79 m/s, 180° | - | - |
| 1777975332 | 25° C | 27% | 1011.7 hPa | - | 2.24 m/s, 135° | - | - |
| 1777975032 | 25° C | 26% | 1011.7 hPa | 0 mm | 1.79 m/s, 225° | - | - |
| 1777974732 | 25.56° C | 26% | 1011.7 hPa | 0 mm | 1.79 m/s, 180° | - | - |
| 1777974433 | 25° C | 27% | 1011.7 hPa | 0 mm | 1.34 m/s, 135° | - | - |
| 1777974132 | 25° C | 26% | 1011.7 hPa | 0 mm | 2.24 m/s, 135° | - | - |
| 1777973832 | 25° C | 25% | 1011.7 hPa | 0 mm | 3.58 m/s, 135° | - | - |
| 1777973532 | 25.56° C | 26% | 1011.7 hPa | 0 mm | 2.24 m/s, 135° | - | - |
| 1777973232 | 25° C | 27% | 1011.8 hPa | 0 mm | 2.24 m/s, 180° | - | - |
| 1777972932 | 25° C | 25% | 1011.9 hPa | 0 mm | 2.24 m/s, 225° | - | - |
| 1777972632 | 25.56° C | 23% | 1011.9 hPa | 0 mm | 1.79 m/s, 180° | - | - |
| 1777972332 | 26.11° C | 21% | 1011.8 hPa | 0 mm | 1.79 m/s, 158° | - | - |
| 1777972032 | 25.56° C | 22% | 1011.9 hPa | 0 mm | 0.89 m/s, 180° | - | - |
| 1777971732 | 25.56° C | 22% | 1011.9 hPa | - | 0.45 m/s, 90° | - | - |
| 1777971432 | 25.56° C | 24% | 1012.1 hPa | 0 mm | 0.89 m/s, 180° | - | - |
| 1777971132 | 25° C | 26% | 1012.1 hPa | 0 mm | 0.89 m/s, 90° | - | - |
| 1777970832 | 25° C | 28% | 1012 hPa | 0 mm | 0.45 m/s, 45° | - | - |
| 1777970532 | 25° C | 30% | 1012 hPa | 0 mm | 0.45 m/s, 90° | - | - |
| 1777970232 | 24.44° C | 30% | 1012.2 hPa | 0 mm | 0.45 m/s, 113° | - | - |
| 1777969932 | 23.89° C | 30% | 1012.2 hPa | 0 mm | 0.89 m/s, 113° | - | - |
* Rain latest hour (hover to see other rain measurements)
** Current wind speed in m/s (hover to see current wind gust speed)